New Ulm, MN

8:42 AM CDT on July 22, 2017 (GMT -0500)
New Ulm Municipal

Weather History for KULM - October, 2013

Change the Weather History Date:

Wednesday, October 30, 2013

  Actual Average Record
Temperature  
Mean Temperature 44 °F -  
Max Temperature 50 °F 53 °F 78 °F (1950)
Min Temperature 39 °F 34 °F 15 °F (1991)
Degree Days  
Heating Degree Days 20    
Moisture  
Dew Point 45 °F    
Average Humidity 99    
Maximum Humidity 100    
Minimum Humidity 93    
Precipitation  
Precipitation 0.05 in - - ()
Sea Level Pressure  
Sea Level Pressure 29.87 in    
Wind  
Wind Speed 5 mph (ENE)    
Max Wind Speed 12 mph    
Max Gust Speed 18 mph    
Visibility 3 miles    
Events Fog , Rain    
Averages and records for this station are not official NWS values.
T = Trace of Precipitation, MM = Missing Value Source: NWS Daily Summary

Daily Weather History Graph

Daily Weather History Graph

Search for Another Location

Airport or City:

Trip Planner

Search our weather history database for the weather conditions in past years. The results will help you decide how hot, cold, wet, or windy it might be!

Date:

Astronomy

Oct. 30, 2013 Rise Set
Actual Time 7:52 AM CDT 6:09 PM CDT
Civil Twilight 7:22 AM CDT 6:39 PM CDT
Nautical Twilight 6:48 AM CDT 7:14 PM CDT
Astronomical Twilight 6:14 AM CDT 7:47 PM CDT
Moon 3:33 AM CDT (10/30) 4:03 PM CDT (10/30)
Length of Visible Light 11h 17m
Length of Day
10h 17m
Waning Crescent, 17% of the Moon is Illuminated
Oct 30
Waning Crescent
Nov 3
New
Nov 9
First Quarter
Nov 17
Full
Nov 25
Last Quarter

Hourly Weather History & Observations

Time (CDT) Temp. Windchill Dew Point Humidity Pressure Visibility Wind Dir Wind Speed Gust Speed Precip Events Conditions
12:13 AM 39.2 °F 33.0 °F 37.4 °F 93% 30.04 in 10.0 mi East 9.2 mph - N/A   Clear
12:33 AM 39.2 °F 33.6 °F 37.4 °F 93% 30.04 in 10.0 mi East 8.1 mph - N/A   Clear
12:52 AM 39.2 °F 35.9 °F 37.4 °F 93% 30.03 in 10.0 mi East 4.6 mph - N/A   Clear
1:13 AM 39.2 °F 37.0 °F 37.4 °F 93% 30.03 in 10.0 mi East 3.5 mph - N/A   Clear
1:33 AM 39.2 °F 35.9 °F 37.4 °F 93% 30.03 in 10.0 mi East 4.6 mph - N/A   Clear
1:52 AM 39.2 °F 37.0 °F 37.4 °F 93% 30.03 in 10.0 mi ENE 3.5 mph - N/A   Clear
2:13 AM 39.2 °F 37.0 °F 37.4 °F 93% 30.02 in 10.0 mi East 3.5 mph - N/A   Clear
2:33 AM 39.2 °F 37.0 °F 39.2 °F 100% 30.02 in 10.0 mi ENE 3.5 mph - N/A   Scattered Clouds
2:52 AM 39.2 °F 35.9 °F 39.2 °F 100% 30.01 in 7.0 mi NE 4.6 mph - N/A   Scattered Clouds
3:13 AM 39.2 °F 35.9 °F 39.2 °F 100% 30.01 in 10.0 mi ENE 4.6 mph - N/A   Scattered Clouds
3:33 AM 39.2 °F 35.0 °F 39.2 °F 100% 30.00 in 7.0 mi ENE 5.8 mph - N/A   Clear
3:52 AM 39.2 °F 35.9 °F 39.2 °F 100% 30.00 in 7.0 mi ENE 4.6 mph - N/A   Clear
4:13 AM 39.2 °F 35.9 °F 39.2 °F 100% 29.99 in 7.0 mi East 4.6 mph - N/A   Clear
4:33 AM 39.2 °F 34.2 °F 39.2 °F 100% 29.99 in 4.0 mi East 6.9 mph - N/A   Clear
4:52 AM 39.2 °F 34.2 °F 39.2 °F 100% 29.98 in 2.5 mi East 6.9 mph - N/A   Mist
5:13 AM 41.0 °F 37.1 °F 41.0 °F 100% 29.97 in 2.5 mi ENE 5.8 mph - N/A   Mist
5:33 AM 41.0 °F 36.4 °F 41.0 °F 100% 29.98 in 2.0 mi ENE 6.9 mph - N/A   Mist
5:53 AM 41.0 °F 38.0 °F 41.0 °F 100% 29.98 in 2.0 mi ENE 4.6 mph - N/A   Drizzle
6:13 AM 41.0 °F 36.4 °F 41.0 °F 100% 29.97 in 1.8 mi East 6.9 mph - N/A   Drizzle
6:32 AM 41.0 °F 36.4 °F 41.0 °F 100% 29.96 in 1.5 mi East 6.9 mph - N/A   Mostly Cloudy
6:53 AM 41.0 °F 35.8 °F 41.0 °F 100% 29.95 in 1.8 mi East 8.1 mph - N/A   Light Drizzle
7:13 AM 41.0 °F 37.1 °F 41.0 °F 100% 29.95 in 2.5 mi East 5.8 mph - N/A   Scattered Clouds
7:32 AM 41.0 °F 37.1 °F 41.0 °F 100% 29.94 in 2.0 mi ENE 5.8 mph - N/A   Unknown
7:53 AM 41.0 °F 37.1 °F 41.0 °F 100% 29.94 in 1.8 mi East 5.8 mph - N/A   Light Drizzle
8:13 AM 41.0 °F 36.4 °F 41.0 °F 100% 29.95 in 1.8 mi East 6.9 mph - N/A   Mist
8:32 AM 42.8 °F 40.1 °F 42.8 °F 100% 29.95 in 2.0 mi ENE 4.6 mph - N/A   Mist
8:53 AM 42.8 °F 40.1 °F 42.8 °F 100% 29.97 in 1.8 mi East 4.6 mph - 0.01 in   Drizzle
9:13 AM 42.8 °F 41.1 °F 42.8 °F 100% 29.97 in 1.5 mi East 3.5 mph - N/A   Drizzle
9:32 AM 42.8 °F 40.1 °F 42.8 °F 100% 29.97 in 1.0 mi East 4.6 mph - N/A   Unknown
9:53 AM 42.8 °F 40.1 °F 42.8 °F 100% 29.96 in 1.8 mi East 4.6 mph - N/A Rain Rain
10:13 AM 42.8 °F 40.1 °F 42.8 °F 100% 29.95 in 1.5 mi East 4.6 mph - 0.01 in Rain Light Rain
10:32 AM 42.8 °F 39.3 °F 42.8 °F 100% 29.91 in 1.0 mi East 5.8 mph - 0.01 in   Overcast
10:53 AM 42.8 °F 36.6 °F 42.8 °F 100% 29.84 in 0.2 mi East 11.5 mph - 0.01 in Fog Fog
11:13 AM 44.6 °F 39.2 °F 44.6 °F 100% 29.81 in 0.5 mi East 10.4 mph 18.4 mph N/A Fog Fog
11:32 AM 44.6 °F 42.2 °F 44.6 °F 100% 29.86 in 0.5 mi SE 4.6 mph - N/A Fog Fog
11:53 AM 46.4 °F 45.2 °F 46.4 °F 100% 29.88 in 0.5 mi SE 3.5 mph - N/A Fog Fog
12:13 PM 46.4 °F - 46.4 °F 100% 29.88 in 0.5 mi Calm Calm - N/A Fog Fog
12:32 PM 46.4 °F - 46.4 °F 100% 29.88 in 0.2 mi Calm Calm - N/A Fog Fog
12:53 PM 46.4 °F 44.3 °F 46.4 °F 100% 29.87 in 0.5 mi SE 4.6 mph - N/A Fog Fog
1:13 PM 48.2 °F - 48.2 °F 100% 29.86 in 0.2 mi SSE 3.5 mph - N/A Fog Fog
1:32 PM 48.2 °F - 48.2 °F 100% 29.85 in 0.2 mi Calm Calm - N/A Fog Fog
1:53 PM 48.2 °F - 48.2 °F 100% 29.84 in 0.8 mi SE 5.8 mph - N/A   Overcast
2:13 PM 50.0 °F - 50.0 °F 100% 29.81 in 0.5 mi SE 5.8 mph - N/A Fog Fog
2:32 PM 48.2 °F - 48.2 °F 100% 29.81 in 0.8 mi Calm Calm - N/A   Overcast
2:53 PM 50.0 °F - 50.0 °F 100% 29.79 in 1.0 mi Calm Calm - N/A   Mist
3:13 PM 50.0 °F - 50.0 °F 100% 29.79 in 0.8 mi Calm Calm - N/A   Overcast
3:32 PM 48.2 °F - 48.2 °F 100% 29.77 in 1.0 mi Calm Calm - N/A   Mist
3:53 PM 50.0 °F - 50.0 °F 100% 29.78 in 1.0 mi Calm Calm - N/A   Mist
4:13 PM 50.0 °F - 50.0 °F 100% 29.76 in 0.2 mi East 3.5 mph - N/A Fog Fog
4:32 PM 50.0 °F - 50.0 °F 100% 29.77 in 0.2 mi Calm Calm - N/A Fog Fog
4:53 PM 50.0 °F - 50.0 °F 100% 29.76 in 0.2 mi NE 3.5 mph - N/A Fog Fog
5:13 PM 50.0 °F - 50.0 °F 100% 29.76 in 0.2 mi Calm Calm - N/A Fog Fog
5:32 PM 50.0 °F - 50.0 °F 100% 29.76 in 0.2 mi Calm Calm - N/A   Drizzle
5:53 PM 50.0 °F - 50.0 °F 100% 29.75 in 0.2 mi Calm Calm - N/A   Drizzle
6:13 PM 50.0 °F - 50.0 °F 100% 29.74 in 0.2 mi Calm Calm - N/A   Drizzle
6:32 PM 50.0 °F - 50.0 °F 100% 29.74 in 0.2 mi Calm Calm - N/A   Drizzle
6:53 PM 50.0 °F - 50.0 °F 100% 29.74 in 0.2 mi Calm Calm - 0.01 in Rain Light Rain
7:13 PM 50.0 °F - 50.0 °F 100% 29.74 in 0.2 mi Calm Calm - N/A Fog Fog
7:32 PM 50.0 °F - 50.0 °F 100% 29.74 in 0.2 mi Calm Calm - N/A   Drizzle
7:53 PM 50.0 °F - 50.0 °F 100% 29.74 in 0.2 mi Calm Calm - N/A   Drizzle
8:13 PM 50.0 °F - 50.0 °F 100% 29.73 in 0.2 mi WNW 3.5 mph - N/A   Unknown
8:33 PM 48.2 °F - 48.2 °F 100% 29.73 in 0.5 mi WNW 5.8 mph - N/A Fog Fog
8:52 PM 48.2 °F - 48.2 °F 100% 29.73 in 0.8 mi WNW 4.6 mph - N/A   Drizzle
9:13 PM 48.2 °F - 48.2 °F 100% 29.73 in 1.0 mi West 5.8 mph - 0.01 in   Drizzle
9:33 PM 46.4 °F 42.9 °F 46.4 °F 100% 29.73 in 1.5 mi WNW 6.9 mph - 0.02 in   Heavy Drizzle
9:52 PM 46.4 °F 42.9 °F 46.4 °F 100% 29.72 in 2.0 mi West 6.9 mph - 0.02 in Rain Light Rain
10:13 PM 46.4 °F 42.9 °F 46.4 °F 100% 29.71 in 2.0 mi WNW 6.9 mph - N/A   Overcast
10:33 PM 46.4 °F 43.5 °F 46.4 °F 100% 29.71 in 2.0 mi WNW 5.8 mph - N/A   Overcast
10:52 PM 46.4 °F 45.2 °F 46.4 °F 100% 29.70 in 2.0 mi WNW 3.5 mph - N/A   Mostly Cloudy
11:13 PM 46.4 °F 42.9 °F 46.4 °F 100% 29.70 in 1.8 mi West 6.9 mph - N/A   Mostly Cloudy
11:33 PM 44.6 °F 39.7 °F 44.6 °F 100% 29.70 in 1.8 mi West 9.2 mph - N/A   Mostly Cloudy
11:52 PM 44.6 °F 40.2 °F 44.6 °F 100% 29.69 in 2.0 mi West 8.1 mph - N/A   Mostly Cloudy